Cecil Field, FL

9:39 AM EDT on June 28, 2017 (GMT -0400)
Cecil

Weather History for KVQQ - April, 2014

Change the Weather History Date:

Monday, April 28, 2014

  Actual Average (KNIP) Record (KNIP)
Temperature  
Mean Temperature 76 °F -  
Max Temperature 89 °F 78 °F 93 °F (2014)
Min Temperature 62 °F 62 °F 52 °F (2001)
Cooling Degree Days 10    
Growing Degree Days 26 (Base 50)    
Moisture  
Dew Point 65 °F    
Average Humidity 78    
Maximum Humidity 100    
Minimum Humidity 38    
Precipitation  
Precipitation 0.00 in - - ()
Sea Level Pressure  
Sea Level Pressure 29.93 in    
Wind  
Wind Speed 2 mph (South)    
Max Wind Speed 15 mph    
Max Gust Speed -    
Visibility 8 miles    
Events Fog    
Averages and records for this station are not official NWS values.
T = Trace of Precipitation, MM = Missing Value Source: NWS Daily Summary

Daily Weather History Graph

Daily Weather History Graph

Search for Another Location

Airport or City:

Trip Planner

Search our weather history database for the weather conditions in past years. The results will help you decide how hot, cold, wet, or windy it might be!

Date:

Astronomy

Apr. 28, 2014 Rise Set
Actual Time 6:47 AM EDT 8:03 PM EDT
Civil Twilight 6:21 AM EDT 8:28 PM EDT
Nautical Twilight 5:51 AM EDT 8:58 PM EDT
Astronomical Twilight 5:20 AM EDT 9:29 PM EDT
Moon 6:20 AM EDT 7:42 PM EDT
Length of Visible Light 14h 06m
Length of Day
13h 16m
Waning Crescent, 0% of the Moon is Illuminated
Apr 28
Waning Crescent
Apr 29
New
May 6
First Quarter
May 14
Full
May 21
Last Quarter

Hourly Weather History & Observations

Time (EDT) Temp. Heat Index Dew Point Humidity Pressure Visibility Wind Dir Wind Speed Gust Speed Precip Events Conditions
12:15 AM 68.0 °F - 64.4 °F 88% 29.99 in 10.0 mi Calm Calm - N/A   Clear
12:35 AM 68.0 °F - 64.4 °F 88% 29.98 in 10.0 mi Calm Calm - N/A   Clear
12:55 AM 66.2 °F - 64.4 °F 94% 29.98 in 10.0 mi Calm Calm - N/A   Clear
1:15 AM 68.0 °F - 64.4 °F 88% 29.97 in 10.0 mi Calm Calm - N/A   Clear
1:35 AM 68.0 °F - 64.4 °F 88% 29.96 in 10.0 mi Calm Calm - N/A   Clear
1:55 AM 69.8 °F - 66.2 °F 88% 29.95 in 10.0 mi Calm Calm - N/A   Clear
2:15 AM 69.8 °F - 66.2 °F 88% 29.95 in 7.0 mi Calm Calm - N/A   Clear
2:35 AM 69.8 °F - 66.2 °F 88% 29.94 in 3.0 mi Calm Calm - N/A   Clear
2:55 AM 68.0 °F - 66.2 °F 94% 29.95 in 3.0 mi Calm Calm - N/A   Clear
3:15 AM 68.0 °F - 66.2 °F 94% 29.95 in 2.5 mi Calm Calm - N/A   Clear
3:35 AM 68.0 °F - 66.2 °F 94% 29.94 in 3.0 mi Calm Calm - N/A   Clear
3:55 AM 68.0 °F - 66.2 °F 94% 29.94 in 8.0 mi Calm Calm - N/A   Clear
4:15 AM 66.2 °F - 66.2 °F 100% 29.94 in 7.0 mi Calm Calm - N/A   Clear
4:35 AM 66.2 °F - 64.4 °F 94% 29.94 in 5.0 mi Calm Calm - N/A   Clear
4:55 AM 64.4 °F - 64.4 °F 100% 29.93 in 3.0 mi Calm Calm - N/A   Clear
5:15 AM 64.4 °F - 62.6 °F 94% 29.93 in 2.0 mi Calm Calm - N/A   Clear
5:35 AM 62.6 °F - 62.6 °F 100% 29.94 in 3.0 mi Calm Calm - N/A   Clear
5:55 AM 64.4 °F - 62.6 °F 94% 29.94 in 1.8 mi Calm Calm - N/A   Clear
6:15 AM 64.4 °F - 64.4 °F 100% 29.94 in 1.0 mi Calm Calm - N/A   Clear
6:35 AM 64.4 °F - 64.4 °F 100% 29.95 in 0.2 mi Calm Calm - N/A Fog Fog
6:50 AM 64.4 °F - 64.4 °F 100% 29.95 in 3.0 mi Calm Calm - N/A   Mostly Cloudy
7:50 AM 68.0 °F - 66.2 °F 94% 29.97 in 5.0 mi South 4.6 mph - N/A   Clear
8:50 AM 73.4 °F - 68.0 °F 83% 29.97 in 10.0 mi South 6.9 mph - N/A   Clear
10:50 AM 82.4 °F 85.4 °F 68.0 °F 62% 29.97 in 10.0 mi South 10.4 mph - N/A   Clear
11:50 AM 84.2 °F 86.6 °F 66.2 °F 55% 29.97 in 10.0 mi South 10.4 mph - N/A   Clear
12:50 PM 86.0 °F 89.4 °F 68.0 °F 55% 29.94 in 10.0 mi South 13.8 mph - N/A   Clear
1:50 PM 89.6 °F 92.2 °F 66.2 °F 46% 29.93 in 10.0 mi SSW 11.5 mph - N/A   Partly Cloudy
2:50 PM 89.6 °F 92.2 °F 66.2 °F 46% 29.93 in 10.0 mi SSW 15.0 mph - N/A   Scattered Clouds
3:50 PM 89.6 °F 91.1 °F 64.4 °F 43% 29.91 in 10.0 mi SW 9.2 mph - N/A   Scattered Clouds
4:50 PM 89.6 °F 91.1 °F 64.4 °F 43% 29.90 in 10.0 mi SW 6.9 mph - N/A   Partly Cloudy
5:50 PM 89.6 °F 91.1 °F 64.4 °F 43% 29.89 in 10.0 mi SW 9.2 mph - N/A   Partly Cloudy
6:50 PM 87.8 °F 87.1 °F 59.0 °F 38% 29.88 in 10.0 mi WSW 9.2 mph - N/A   Partly Cloudy
7:50 PM 82.4 °F 82.9 °F 60.8 °F 48% 29.87 in 10.0 mi West 5.8 mph - N/A   Clear
8:15 PM 78.8 °F - 62.6 °F 57% 29.89 in 10.0 mi Calm Calm - N/A   Mostly Cloudy
8:35 PM 78.8 °F - 64.4 °F 61% 29.89 in 10.0 mi Calm Calm - N/A   Scattered Clouds
8:55 PM 77.0 °F - 66.2 °F 69% 29.89 in 10.0 mi Calm Calm - N/A   Clear
9:15 PM 75.2 °F - 66.2 °F 73% 29.89 in 10.0 mi Calm Calm - N/A   Clear
9:35 PM 77.0 °F - 68.0 °F 74% 29.90 in 10.0 mi SE 3.5 mph - N/A   Clear
9:55 PM 75.2 °F - 68.0 °F 78% 29.90 in 10.0 mi Calm Calm - N/A   Clear
10:15 PM 73.4 °F - 68.0 °F 83% 29.90 in 10.0 mi ESE 3.5 mph - N/A   Clear
10:55 PM 73.4 °F - 68.0 °F 83% 29.91 in 10.0 mi SE 3.5 mph - N/A   Clear
11:15 PM 73.4 °F - 68.0 °F 83% 29.91 in 10.0 mi SE 3.5 mph - N/A   Clear
11:35 PM 73.4 °F - 68.0 °F 83% 29.91 in 10.0 mi SE 4.6 mph - N/A   Clear
11:55 PM 73.4 °F - 68.0 °F 83% 29.91 in 10.0 mi SE 3.5 mph - N/A   Clear